Regional Weather Roundup
Issued by NWS Jackson, KY

Home | Current Version | Previous Version | Text Only | Print | Product List | Glossary Off
Versions: 1 2 3 4 5 6 7 8 9 10 11 12 13 14 15 16 17 18 19 20 21 22 23 24 25 26 27 28 29 30 31 32 33 34 35 36 37 38 39 40 41 42 43 44 45 46 47 48 49 50

366
ASUS43 KJKL 242210
RWRJKL

EAST KENTUCKY HOURLY WEATHER ROUNDUP
NATIONAL WEATHER SERVICE JACKSON KY
600 PM EDT THU MAY 24 2018

NOTE: "FAIR" INDICATES FEW OR NO CLOUDS BELOW 12,000 FEET WITH
NO SIGNIFICANT WEATHER AND/OR OBSTRUCTIONS TO VISIBILITY.

* THESE REPORTS ARE NOT UNDER NWS QUALITY CONTROL AND MAY NOT
  REPORT WEATHER SUCH AS PRECIPITATION AND FOG.

KYZ079-080-083-085-087-088-110-112-115-119-120-242300
...EASTERN KENTUCKY...

CITY           SKY/WX    TMP DP  RH WIND       PRES   REMARKS
JACKSON          N/A     81  62  52 CALM      30.10S
LONDON           N/A     84  61  45 NE7       30.08S
SOMERSET*        N/A     82  59  44 MISG      30.08F
MONTICELLO*      N/A     84  62  47 N13G20    30.09S
WILLIAMSBURG*    N/A     84  63  48 N5        30.08S
MIDDLESBORO*   PTSUNNY   85  65  50 N7        30.07S
HARLAN APT*    MOCLDY    85  63  47 NE3       30.08F
PIKE CO APT*     N/A     81  61  49 N3        30.11S
BIG SANDY APT*   N/A     82  64  55 CALM      30.10S
MOREHEAD APT*    N/A     82  55  39 CALM      30.11F
ASHLAND*         N/A     82  60  47 CALM      30.09F
$$

KYZ035-036-041-042-044-050-067-078-099-242300
...CENTRAL KENTUCKY...

CITY           SKY/WX    TMP DP  RH WIND       PRES   REMARKS
MT STERLING*     N/A     81  59  47 NE5       30.12S
FLEMING/MASON*   N/A     81  55  41 SE5       30.11F
DANVILLE*        N/A     81  61  50 E3        30.10F
LEXINGTON        N/A     82  56  40 NE7       30.10F
FRANKFORT        N/A     83  52  34 E6        30.08F
LOUISVILLE       N/A     86  52  30 CALM      30.07F
LEBANON*         N/A     82  57  42 CALM      30.08F
GLASGOW*         N/A     86  59  39 N6        30.07S
BOWLING GREEN  PTSUNNY   86  65  49 E7        30.05F
$$

KYZ091>093-OHZ055-061-077-WVZ005-015-034-035-042-242300
...SOUTHERN OHIO/WEST VIRGINIA...

CITY           SKY/WX    TMP DP  RH WIND       PRES   REMARKS
COVINGTON        N/A     82  54  37 NE7       30.10F
COLUMBUS         N/A     82  49  31 E6        30.11F
DAYTON           N/A     81  50  33 SE9       30.13F
WILMINGTON       N/A     79  53  40 SE6       30.11F
HUNTINGTON       N/A     83  57  41 VRB7      30.08F
CHARLESTON       N/A     85  62  46 VRB3      30.08F
PINEVILLE*       N/A     82  60  46 MISG      30.16S
BECKLEY          N/A     78  52  40 SE7       30.16F
BLUEFIELD        N/A     73  58  59 SE8       30.19F
LOGAN CO APT*    N/A     82  63  51 CALM      30.10F
$$

VAZ002-007-008-TNZ017-027-036-066-071-242300
...SOUTHWEST VIRGINIA/EAST TENNESSEE...

CITY           SKY/WX    TMP DP  RH WIND       PRES   REMARKS
WISE*            N/A     79  64  61 N7        30.16S
JONESVILLE*      N/A     86  61  42 CALM      30.09S
ABINGDON*        N/A     82  63  52 SE12      30.13S
BRISTOL          N/A     83  64  52 E7        30.08S
MORRISTOWN*    MOCLDY    86  61  42 VRB3      30.05S
SEVIERVILLE*   MOCLDY    84  66  54 N5        30.04R
KNOXVILLE        N/A     89  66  46 VRB6      30.03S HX  91
LAFOLLETTE*    PTCLDY    84  64  51 VRB3      30.08F
OAK RIDGE        N/A     90  59  35 CALM      30.04F
CROSSVILLE     PTSUNNY   83  60  45 NW7       30.09F
NASHVILLE      PTSUNNY   88  60  38 N5        30.04S
$$

...KEY TO REMARKS...
VSB - VISIBILITY IN MILES
WCI - WIND CHILL INDEX
HX  - HEAT INDEX

$$




USA.gov is the U.S. government's official web portal to all federal, state and local government web resources and services.